Mount Pleasant, SC

10:56 AM EDT on June 29, 2017 (GMT -0400)
Mount Pleasant

Weather History for KLRO - November, 2013

Change the Weather History Date:

Monday, November 4, 2013

  Actual Average (KCHS) Record (KCHS)
Temperature  
Mean Temperature 57 °F -  
Max Temperature 66 °F 72 °F 86 °F (1972)
Min Temperature 48 °F 51 °F 27 °F (1966)
Degree Days  
Heating Degree Days 8    
Growing Degree Days 7 (Base 50)    
Moisture  
Dew Point 46 °F    
Average Humidity 75    
Maximum Humidity 100    
Minimum Humidity 43    
Precipitation  
Precipitation 0.00 in - - ()
Sea Level Pressure  
Sea Level Pressure 30.39 in    
Wind  
Wind Speed 5 mph (NNE)    
Max Wind Speed 12 mph    
Max Gust Speed 18 mph    
Visibility 10 miles    
Events      
Averages and records for this station are not official NWS values.
T = Trace of Precipitation, MM = Missing Value Source: NWS Daily Summary

Daily Weather History Graph

Daily Weather History Graph

Search for Another Location

Airport or City:

Trip Planner

Search our weather history database for the weather conditions in past years. The results will help you decide how hot, cold, wet, or windy it might be!

Date:

Astronomy

Nov. 04, 2013 Rise Set
Actual Time 6:39 AM EST 5:25 PM EST
Civil Twilight 6:14 AM EST 5:50 PM EST
Nautical Twilight 5:44 AM EST 6:20 PM EST
Astronomical Twilight 5:15 AM EST 6:49 PM EST
Moon 7:45 AM EST (11/4) 6:32 PM EST (11/4)
Length of Visible Light 11h 36m
Length of Day
10h 45m
New Moon, 2% of the Moon is Illuminated
Nov 4
New Moon
Nov 10
First Quarter
Nov 17
Full
Nov 25
Last Quarter
Dec 2
New

Hourly Weather History & Observations

Time (EST) Temp. Dew Point Humidity Pressure Visibility Wind Dir Wind Speed Gust Speed Precip Events Conditions
12:15 AM 51.8 °F 46.4 °F 82% 30.29 in 10.0 mi NNE 3.5 mph - N/A   Clear
12:35 AM 50.0 °F 46.4 °F 87% 30.29 in 10.0 mi NNE 3.5 mph - N/A   Clear
12:55 AM 51.8 °F 46.4 °F 82% 30.29 in 10.0 mi NNE 3.5 mph - N/A   Clear
1:15 AM 50.0 °F 46.4 °F 87% 30.29 in 10.0 mi NNE 3.5 mph - N/A   Clear
1:35 AM 50.0 °F 46.4 °F 87% 30.30 in 10.0 mi NNE 4.6 mph - N/A   Clear
1:55 AM 48.2 °F 46.4 °F 93% 30.30 in 10.0 mi North 4.6 mph - N/A   Clear
2:15 AM 51.8 °F 48.2 °F 88% 30.32 in 10.0 mi North 4.6 mph - N/A   Clear
2:35 AM 48.2 °F 46.4 °F 93% 30.33 in 10.0 mi Calm Calm - N/A   Clear
2:55 AM 48.2 °F 48.2 °F 100% 30.33 in 10.0 mi North 3.5 mph - N/A   Clear
3:15 AM 48.2 °F 46.4 °F 93% 30.33 in 10.0 mi NNE 5.8 mph - N/A   Clear
3:35 AM 48.2 °F 46.4 °F 93% 30.34 in 10.0 mi North 4.6 mph - N/A   Clear
3:55 AM 48.2 °F 46.4 °F 93% 30.35 in 10.0 mi North 4.6 mph - N/A   Clear
4:15 AM 48.2 °F 46.4 °F 93% 30.36 in 10.0 mi North 4.6 mph - N/A   Clear
4:35 AM 48.2 °F 46.4 °F 93% 30.36 in 10.0 mi North 5.8 mph - N/A   Clear
4:55 AM 48.2 °F 46.4 °F 93% 30.35 in 10.0 mi NNE 4.6 mph - N/A   Clear
5:15 AM 48.2 °F 46.4 °F 93% 30.35 in 10.0 mi NNE 6.9 mph - N/A   Clear
5:35 AM 48.2 °F 46.4 °F 93% 30.35 in 10.0 mi NNE 6.9 mph - N/A   Clear
5:55 AM 50.0 °F 48.2 °F 94% 30.36 in 10.0 mi NNE 6.9 mph - N/A   Clear
6:15 AM 48.2 °F 46.4 °F 93% 30.36 in 10.0 mi NNE 5.8 mph - N/A   Clear
6:35 AM 48.2 °F 46.4 °F 93% 30.37 in 10.0 mi NNE 4.6 mph - N/A   Clear
6:55 AM 48.2 °F 46.4 °F 93% 30.38 in 10.0 mi NNE 5.8 mph - N/A   Clear
7:15 AM 48.2 °F 46.4 °F 93% 30.38 in 10.0 mi North 4.6 mph - N/A   Clear
7:35 AM 48.2 °F 44.6 °F 87% 30.38 in 10.0 mi NNE 6.9 mph - N/A   Clear
7:55 AM 50.0 °F 44.6 °F 82% 30.39 in 10.0 mi North 6.9 mph - N/A   Clear
8:15 AM 51.8 °F 46.4 °F 82% 30.40 in 10.0 mi North 6.9 mph - N/A   Clear
8:35 AM 53.6 °F 46.4 °F 77% 30.41 in 10.0 mi North 6.9 mph - N/A   Clear
8:55 AM 55.4 °F 46.4 °F 72% 30.42 in 10.0 mi North 5.8 mph - N/A   Clear
9:15 AM 55.4 °F 46.4 °F 72% 30.41 in 10.0 mi North 9.2 mph - N/A   Clear
9:35 AM 57.2 °F 46.4 °F 67% 30.41 in 10.0 mi NNE 8.1 mph - N/A   Clear
9:55 AM 59.0 °F 46.4 °F 63% 30.42 in 10.0 mi NNE 10.4 mph 18.4 mph N/A   Clear
10:15 AM 60.8 °F 46.4 °F 59% 30.42 in 10.0 mi NNE 9.2 mph - N/A   Clear
10:35 AM 62.6 °F 48.2 °F 59% 30.41 in 10.0 mi NNE 11.5 mph - N/A   Clear
10:55 AM 62.6 °F 44.6 °F 52% 30.42 in 10.0 mi NNE 4.6 mph - N/A   Clear
11:15 AM 62.6 °F 42.8 °F 48% 30.42 in 10.0 mi NNE 8.1 mph - N/A   Clear
11:35 AM 64.4 °F 42.8 °F 45% 30.41 in 10.0 mi NNE 8.1 mph 16.1 mph N/A   Clear
11:55 AM 64.4 °F 42.8 °F 45% 30.41 in 10.0 mi North 8.1 mph - N/A   Clear
12:15 PM 64.4 °F 42.8 °F 45% 30.41 in 10.0 mi North 6.9 mph - N/A   Clear
12:35 PM 66.2 °F 44.6 °F 46% 30.41 in 10.0 mi NNE 8.1 mph - N/A   Clear
12:55 PM 66.2 °F 42.8 °F 43% 30.40 in 10.0 mi NNE 9.2 mph - N/A   Clear
1:15 PM 66.2 °F 42.8 °F 43% 30.39 in 10.0 mi NNE 4.6 mph - N/A   Clear
1:35 PM 66.2 °F 46.4 °F 49% 30.39 in 10.0 mi North 5.8 mph - N/A   Clear
1:55 PM 66.2 °F 48.2 °F 52% 30.38 in 10.0 mi NNE 9.2 mph - N/A   Clear
2:15 PM 64.4 °F 48.2 °F 56% 30.38 in 10.0 mi NE 6.9 mph - N/A   Clear
2:35 PM 64.4 °F 48.2 °F 56% 30.38 in 10.0 mi NE 5.8 mph - N/A   Clear
2:55 PM 64.4 °F 50.0 °F 59% 30.38 in 10.0 mi Calm Calm - N/A   Clear
3:15 PM 64.4 °F 50.0 °F 59% 30.39 in 10.0 mi ENE 6.9 mph - N/A   Clear
3:35 PM 64.4 °F 50.0 °F 59% 30.39 in 10.0 mi Calm Calm - N/A   Clear
3:55 PM 62.6 °F 48.2 °F 59% 30.39 in 10.0 mi NE 5.8 mph 16.1 mph N/A   Clear
4:15 PM 62.6 °F 48.2 °F 59% 30.39 in 10.0 mi NE 3.5 mph - N/A   Clear
4:35 PM 62.6 °F 48.2 °F 59% 30.39 in 10.0 mi NE 6.9 mph - N/A   Clear
4:55 PM 60.8 °F 48.2 °F 63% 30.39 in 10.0 mi NNE 4.6 mph - N/A   Clear
5:15 PM 59.0 °F 48.2 °F 67% 30.39 in 10.0 mi NNE 4.6 mph - N/A   Clear
5:35 PM 57.2 °F 50.0 °F 77% 30.39 in 10.0 mi NNE 3.5 mph - N/A   Clear
5:55 PM 55.4 °F 48.2 °F 77% 30.40 in 10.0 mi NNE 4.6 mph - N/A   Clear
6:15 PM 55.4 °F 51.8 °F 88% 30.41 in 10.0 mi Calm Calm - N/A   Clear
6:35 PM 55.4 °F 51.8 °F 88% 30.42 in 10.0 mi NNE 3.5 mph - N/A   Clear
6:55 PM 53.6 °F 51.8 °F 94% 30.42 in 10.0 mi NNE 3.5 mph - N/A   Clear
7:15 PM 55.4 °F 51.8 °F 88% 30.42 in 10.0 mi NNE 4.6 mph - N/A   Clear
7:35 PM 53.6 °F 48.2 °F 82% 30.42 in 10.0 mi North 4.6 mph - N/A   Clear
7:55 PM 53.6 °F 46.4 °F 77% 30.42 in 10.0 mi NNE 4.6 mph - N/A   Clear
8:15 PM 53.6 °F 46.4 °F 77% 30.42 in 10.0 mi NNE 4.6 mph - N/A   Clear
8:35 PM 51.8 °F 46.4 °F 82% 30.43 in 10.0 mi NNE 5.8 mph - N/A   Clear
8:55 PM 51.8 °F 44.6 °F 76% 30.43 in 10.0 mi NE 8.1 mph - N/A   Clear
9:15 PM 51.8 °F 44.6 °F 76% 30.42 in 10.0 mi NNE 4.6 mph - N/A   Clear
9:35 PM 51.8 °F 44.6 °F 76% 30.42 in 10.0 mi NNE 5.8 mph - N/A   Clear
9:55 PM 51.8 °F 42.8 °F 71% 30.43 in 10.0 mi North 6.9 mph - N/A   Clear
10:15 PM 51.8 °F 42.8 °F 71% 30.43 in 10.0 mi North 5.8 mph - N/A   Clear
10:35 PM 51.8 °F 42.8 °F 71% 30.43 in 10.0 mi NNE 4.6 mph - N/A   Clear
10:55 PM 50.0 °F 42.8 °F 76% 30.43 in 10.0 mi North 4.6 mph - N/A   Clear
11:15 PM 48.2 °F 42.8 °F 82% 30.42 in 10.0 mi North 4.6 mph - N/A   Clear
11:35 PM 48.2 °F 42.8 °F 82% 30.42 in 10.0 mi North 6.9 mph - N/A   Clear
11:55 PM 48.2 °F 42.8 °F 82% 30.42 in 10.0 mi North 5.8 mph - N/A   Clear